Terug naar catalogus

CZ-6A DEB

ActiefSSO
NORAD 55238·DEBRIS·🇨🇳 China

Gelanceerd Nov 11, 2022 vanaf Taiyuan Satellite Launch Center

Loading…

Volgende Passages (komende 24 uur)

TLE

VersSource: Space-Track

Epoch: Sep 14, 2026, 19:01 UTC

1 55238U 22151XF  26257.79271413  .00000220  00000-0  12415-3 0  9990
2 55238  98.7829 274.9929 0026188 287.3664  72.4649 14.19868419198923

Volg CZ-6A DEB in realtime met AllMySat

Download on the App Store